BEIDOU-3 M2 (C20)

Last updated on Aug. 7, 2020, 5:36 a.m. UTC

1 43002U 17069B   20219.57364953 -.00000013  00000-0  00000+0 0  9992
2 43002  55.2335 134.5502 0010045 312.8729 270.4897  1.86231474 18727
UTC
Height (km)
Latitude
Longitude
Inclination
Orbital Period
UTC large
Height (km)
Speed (km/s)
/
Latitude / Longitude
Inclination (degrees)
Orbital Period (minutes)
Azimuth
Elevation
Range (km)
Doppler Factor
iOS Compass Heading
iOS Angle

Next 30 passes for location: Hong Kong

Rise time Rise Azimuth (degrees) Set time Set Azimuth (degrees) Duration Max altitude (degrees)

No matching passes for this satellites